Wind_Speed
25 23 23 23 22 22 21 21 22 22 20 21 21 22 23 22 24 24 28 31 34 36 40 41 39 39 41 41 39 46 60 44 40 42 39 37 35 36 27 28 25 26 25 24 24
26 25 26 25 24 24 24 24 25 24 24 24 24 26 27 28 25 27 32 36 36 39 40 46 48 47 44 43 44 43 56 52 43 42 43 41 40 38 35 25 22 25 26 26 26
27 26 26 25 25 26 27 27 28 27 27 27 27 26 29 32 33 33 36 39 40 42 45 46 54 54 52 46 48 46 44 56 51 47 44 44 42 41 40 34 27 25 28 26 26
29 29 28 26 26 27 29 29 31 31 32 30 30 30 31 31 35 36 39 40 43 48 49 52 54 61 58 54 52 51 47 45 59 55 47 46 45 44 43 40 36 30 29 29 28
32 32 31 30 28 30 31 33 34 35 34 35 33 35 34 33 39 39 40 43 48 50 53 55 58 61 63 60 55 56 51 51 51 55 56 51 48 47 45 44 39 33 29 30 30
33 33 32 33 32 32 33 35 36 37 37 36 36 38 39 39 42 44 47 46 49 51 55 59 62 63 64 65 60 59 52 54 54 52 56 54 50 50 49 48 45 40 33 29 29
33 35 35 34 34 34 36 38 38 40 40 41 41 41 42 44 46 49 51 52 55 59 60 62 66 68 68 62 57 60 55 57 57 55 59 53 53 53 49 46 45 40 36 33 31
34 37 38 38 40 40 40 41 43 44 45 46 47 47 47 48 51 54 56 58 62 65 68 67 70 72 73 68 56 56 58 62 59 59 60 65 59 52 52 51 52 46 42 35 33
35 36 40 40 41 41 41 43 43 46 48 48 49 50 50 51 55 57 58 65 68 71 70 71 77 76 76 70 65 51 66 64 61 62 57 59 68 63 55 53 53 48 43 40 36
32 33 36 39 40 42 42 43 45 46 49 51 52 52 52 54 58 62 65 66 69 70 65 71 78 74 78 75 64 50 60 64 60 63 60 59 57 62 62 55 50 47 42 40 38
34 36 37 41 41 43 43 43 46 47 51 51 52 55 55 56 61 62 63 65 63 59 61 69 74 72 68 82 76 46 56 63 62 52 57 58 54 55 58 61 53 49 47 41 39
37 39 40 43 43 45 46 46 48 48 47 51 53 54 53 57 55 58 59 49 41 41 43 65 73 64 77 87 82 51 40 59 61 64 63 66 55 56 56 57 55 50 46 44 42
40 42 42 44 45 46 47 48 49 50 47 49 48 51 52 54 49 46 32 27 27 33 43 46 66 67 68 84 85 50 50 53 47 61 65 59 51 55 54 51 53 59 52 45 43
41 42 43 44 44 46 46 47 48 51 44 44 47 44 47 45 33 23 20 21 22 28 38 44 40 62 57 71 77 48 47 42 56 55 71 69 63 48 61 60 54 53 52 47 48
42 41 41 42 43 43 45 46 46 48 44 41 44 44 42 33 22 20 18 21 15 30 37 43 25 47 60 61 49 52 34 40 43 50 57 63 67 61 52 56 62 61 58 51 49
40 39 41 40 40 40 43 44 43 39 36 37 41 40 33 23 17 21 20 22 21 24 32 43 27 32 41 69 48 55 24 28 48 45 54 52 58 62 62 58 56 57 52 52 46
38 36 38 39 37 38 41 40 38 33 35 36 37 36 27 18 15 20 18 18 22 13 30 43 30 35 28 44 72 69 42 27 40 50 57 47 59 58 53 56 62 53 53 53 56
34 33 36 34 35 37 37 36 33 30 29 31 34 32 21 16 12 16 20 20 19 8 26 44 41 34 27 30 50 59 45 30 30 47 48 49 54 57 53 50 52 53 49 53 56
35 34 33 31 33 34 33 31 28 24 26 28 30 26 20 14 10 15 19 14 17 12 20 37 37 29 35 27 43 66 41 27 25 22 49 48 50 50 49 52 44 45 47 48 55
34 35 30 30 31 30 30 28 22 19 24 26 26 27 15 13 7 14 15 15 10 13 15 29 37 34 27 34 33 41 29 21 20 26 33 44 49 53 45 46 41 43 42 42 45
34 33 29 28 30 28 26 23 19 16 22 24 23 24 15 10 6 12 18 14 13 10 15 25 33 35 34 38 41 48 28 26 14 19 24 34 40 43 37 39 35 36 30 28 28
33 29 28 28 26 24 21 20 16 13 20 22 22 21 17 12 11 11 16 15 13 13 4 11 24 29 35 38 54 38 39 28 12 12 24 36 36 32 33 38 36 37 35 32 35
30 27 27 27 23 21 18 16 8 12 18 22 22 19 16 12 10 10 14 15 21 18 10 11 9 17 25 35 51 65 52 44 25 12 19 29 32 38 39 38 34 30 27 26 27
28 24 25 24 22 17 15 11 8 14 17 21 19 17 14 9 8 10 11 16 26 22 11 16 11 10 13 22 34 34 46 49 39 24 15 13 15 23 26 26 23 16 14 13 11
27 23 24 21 18 14 12 7 7 13 14 15 18 17 14 11 6 8 9 15 26 22 20 22 15 11 10 13 18 27 27 38 29 23 11 9 10 9 8 6 7 11 11 13 15
23 21 23 22 13 11 7 2 7 10 13 16 17 18 14 12 8 4 8 11 24 25 24 28 16 14 8 14 18 18 20 17 13 9 7 9 7 4 5 8 11 12 12 15 19
23 21 23 20 12 7 3 3 9 11 12 14 16 18 14 12 9 3 5 8 17 34 27 27 22 22 15 16 20 21 21 19 18 15 14 15 14 11 19 19 19 22 23 23 26
Wind_Direction
290 286 284 282 282 284 282 283 282 279 280 276 273 267 277 277 278 276 273 264 257 248 237 236 234 233 234 231 233 231 231 228 232 232 231 221 217 219 223 229 230 227 218 218 218
280 282 282 278 277 277 280 280 279 278 276 279 275 269 270 268 276 285 272 265 263 257 249 236 236 237 236 231 228 231 227 232 233 232 232 226 222 219 218 223 228 236 224 218 221
282 281 279 277 276 277 277 279 278 278 279 278 273 274 274 274 264 277 281 275 269 264 257 244 237 237 239 235 232 230 234 228 230 233 229 229 226 224 222 220 234 236 233 222 221
287 284 285 281 280 281 279 278 280 277 279 278 279 270 279 274 269 277 280 275 270 266 258 252 240 238 237 236 233 227 228 229 230 233 228 230 227 226 224 224 231 233 237 226 225
291 288 290 285 283 284 283 281 280 281 280 279 283 279 280 275 272 275 279 274 271 265 260 250 245 239 236 235 234 231 226 224 230 233 229 227 226 224 226 223 231 235 236 232 229
292 291 291 284 284 285 285 285 284 284 283 283 283 283 282 283 280 279 282 276 272 270 261 253 242 237 234 234 232 233 229 227 226 230 225 224 225 225 225 223 231 236 233 236 230
291 291 290 285 284 286 287 287 288 290 288 287 288 287 283 283 282 281 280 278 275 273 265 251 240 233 232 227 228 231 229 228 229 226 225 222 225 227 222 220 223 224 232 239 232
296 293 291 289 288 287 288 291 292 292 293 293 292 289 285 284 285 284 285 283 278 273 264 249 237 230 225 222 220 227 231 230 225 227 224 225 225 229 226 223 231 234 239 236 234
293 292 291 291 291 289 290 291 292 293 293 293 292 288 289 286 286 287 285 283 277 271 261 243 231 225 220 216 216 233 223 224 224 225 227 229 227 230 230 226 229 237 235 237 233
296 296 294 293 291 291 291 292 294 293 294 295 294 293 291 291 291 289 288 283 277 269 253 232 222 218 215 210 211 228 224 224 229 225 228 230 230 230 234 231 229 232 234 233 234
301 301 301 300 298 295 294 292 294 296 296 298 297 296 292 293 294 295 291 285 277 260 237 221 218 216 209 210 208 224 218 220 226 222 218 231 230 229 228 228 228 229 232 231 232
306 305 304 302 300 301 300 298 297 297 301 300 299 298 300 302 302 298 292 281 261 240 223 216 211 212 212 208 214 209 217 222 220 222 222 227 230 229 225 224 224 230 235 236 234
307 306 304 305 303 301 300 301 302 302 308 306 307 308 309 310 306 296 275 252 239 225 220 218 212 211 214 212 215 214 212 213 217 219 221 213 222 230 226 224 230 227 228 228 231
312 310 306 304 303 302 305 304 305 306 315 312 314 317 314 308 300 272 236 228 240 226 217 207 212 213 211 218 220 211 208 204 213 216 222 214 216 224 220 218 223 223 223 233 230
312 313 307 305 304 307 308 310 311 312 317 316 317 323 319 309 288 226 232 221 221 229 219 202 205 216 216 214 211 224 211 221 209 215 220 222 221 217 221 226 230 231 235 228 230
309 312 309 307 306 310 313 313 316 320 324 325 325 329 321 304 265 228 225 219 228 233 217 196 188 204 216 220 205 211 226 221 217 218 215 228 227 225 219 228 230 233 226 231 229
309 311 310 310 312 315 315 316 318 323 323 328 334 335 325 299 266 226 218 209 220 232 210 197 191 198 215 228 222 212 226 235 215 217 220 226 225 228 216 219 229 230 242 243 234
312 317 317 314 316 317 316 318 321 325 332 334 337 337 325 304 267 227 219 213 218 252 207 202 215 206 226 229 216 221 224 216 207 218 216 221 224 225 223 216 224 228 236 235 236
316 321 319 317 317 317 317 319 324 332 339 340 342 338 329 321 271 221 210 212 222 232 213 205 206 215 222 214 223 225 231 218 202 206 218 219 227 224 222 225 228 229 233 232 235
321 323 318 318 317 318 318 322 324 333 342 344 344 348 330 328 270 226 214 222 218 228 213 208 207 207 212 204 206 207 192 173 167 171 198 218 225 228 228 224 233 227 234 231 232
321 323 318 317 318 318 319 324 325 330 337 343 344 346 330 322 305 234 222 213 217 208 217 215 215 221 216 204 201 208 200 167 148 154 161 191 211 217 212 213 212 208 207 207 211
320 320 315 315 318 319 318 325 330 332 335 338 337 336 342 316 307 257 227 221 185 134 213 235 218 222 223 216 206 209 209 198 200 144 152 182 194 195 201 189 197 199 201 202 203
318 318 313 315 319 317 321 329 339 338 340 341 335 331 325 323 298 287 239 210 180 150 135 171 192 221 231 227 214 219 217 234 240 180 143 166 170 180 190 190 187 187 187 193 201
317 314 313 315 318 318 324 323 327 335 337 343 346 337 326 316 305 289 245 210 173 149 131 165 140 206 226 231 225 236 240 242 257 252 226 181 166 167 174 183 186 186 187 205 221
315 312 313 311 311 314 322 315 322 332 342 345 348 339 337 325 312 283 260 211 202 177 157 163 163 157 191 212 221 237 247 251 262 270 235 230 196 168 169 171 204 205 214 215 224
312 311 311 311 306 315 320 337 338 346 337 337 339 340 334 337 326 289 260 216 205 189 170 168 156 143 196 200 223 236 244 238 253 268 233 250 251 193 206 209 213 219 227 229 228
312 312 311 309 293 300 288 307 334 334 344 353 338 338 340 333 321 308 242 232 210 209 195 185 178 163 171 191 200 206 216 225 232 230 215 216 227 225 222 211 221 222 219 224 226
Height
5788 5787 5786 5784 5783 5782 5782 5781 5779 5779 5779 5779 5779 5779 5778 5779 5780 5780 5782 5782 5781 5783 5786 5789 5791 5792 5794 5796 5799 5803 5808 5810 5815 5820 5825 5826 5828 5831 5835 5835 5837 5839 5844 5847 5847
5781 5781 5780 5779 5778 5777 5776 5775 5774 5773 5773 5771 5772 5772 5772 5773 5774 5774 5775 5773 5773 5776 5778 5780 5783 5784 5788 5791 5791 5795 5800 5807 5810 5815 5817 5821 5824 5826 5831 5831 5834 5837 5841 5843 5844
5776 5774 5773 5773 5772 5771 5770 5769 5768 5767 5766 5765 5765 5764 5764 5765 5767 5766 5765 5765 5765 5766 5768 5771 5773 5775 5779 5783 5784 5786 5792 5798 5803 5809 5811 5815 5818 5822 5825 5828 5831 5833 5838 5840 5841
5769 5769 5768 5766 5765 5764 5762 5761 5760 5759 5758 5759 5758 5758 5757 5757 5757 5754 5754 5754 5755 5755 5758 5761 5764 5765 5770 5774 5778 5778 5784 5789 5794 5800 5805 5807 5812 5817 5820 5825 5825 5829 5833 5835 5838
5763 5762 5761 5759 5758 5756 5755 5754 5752 5751 5750 5748 5747 5746 5747 5747 5747 5745 5747 5745 5745 5745 5745 5748 5752 5755 5758 5764 5768 5770 5777 5778 5784 5789 5795 5800 5803 5809 5815 5818 5820 5825 5828 5831 5833
5757 5756 5754 5752 5750 5749 5747 5746 5744 5743 5742 5740 5739 5736 5735 5734 5734 5732 5732 5733 5730 5731 5733 5734 5737 5743 5747 5753 5757 5761 5769 5770 5772 5778 5786 5792 5794 5801 5808 5811 5815 5820 5824 5827 5829
5750 5749 5747 5744 5743 5741 5739 5737 5734 5732 5730 5728 5726 5725 5723 5721 5719 5719 5716 5716 5716 5714 5715 5717 5720 5726 5734 5741 5748 5751 5757 5760 5763 5769 5776 5783 5786 5792 5801 5805 5806 5812 5818 5821 5825
5742 5741 5739 5736 5734 5732 5729 5727 5723 5721 5718 5716 5714 5712 5709 5706 5701 5699 5698 5694 5694 5695 5695 5698 5702 5710 5717 5729 5739 5741 5744 5746 5757 5759 5766 5772 5778 5786 5793 5797 5801 5805 5811 5815 5819
5734 5732 5730 5727 5725 5722 5719 5717 5712 5709 5707 5704 5702 5698 5694 5690 5686 5683 5682 5677 5674 5674 5673 5675 5679 5689 5701 5714 5724 5723 5727 5737 5745 5750 5756 5761 5769 5777 5783 5789 5793 5799 5804 5808 5812
5727 5724 5722 5719 5716 5712 5709 5705 5701 5697 5694 5690 5686 5683 5676 5672 5667 5661 5658 5656 5650 5643 5648 5652 5660 5669 5684 5697 5703 5712 5717 5726 5732 5741 5744 5751 5759 5766 5774 5781 5786 5792 5797 5801 5806
5720 5717 5714 5711 5708 5704 5700 5695 5692 5686 5680 5676 5670 5665 5658 5653 5645 5636 5631 5625 5619 5617 5621 5633 5644 5653 5671 5685 5697 5699 5703 5710 5724 5734 5738 5741 5749 5756 5763 5770 5776 5782 5788 5794 5799
5714 5711 5707 5703 5699 5694 5689 5684 5679 5674 5667 5662 5654 5646 5639 5632 5623 5615 5609 5603 5599 5603 5611 5619 5627 5646 5654 5669 5675 5684 5693 5704 5712 5722 5727 5734 5740 5744 5750 5760 5769 5775 5780 5785 5792
5707 5703 5699 5695 5690 5685 5679 5673 5667 5661 5653 5646 5637 5629 5621 5613 5606 5598 5595 5592 5593 5597 5602 5610 5624 5633 5643 5654 5660 5673 5683 5692 5698 5711 5716 5724 5727 5732 5741 5749 5757 5765 5771 5775 5782
5700 5694 5690 5686 5682 5674 5669 5663 5656 5649 5641 5633 5624 5615 5607 5600 5596 5591 5589 5591 5594 5597 5599 5605 5618 5627 5636 5643 5653 5667 5675 5679 5688 5694 5700 5711 5716 5720 5730 5741 5747 5754 5763 5769 5775
5691 5685 5681 5675 5672 5666 5660 5652 5644 5637 5630 5623 5614 5603 5595 5591 5587 5588 5587 5588 5590 5593 5595 5607 5613 5624 5632 5639 5642 5651 5662 5669 5677 5685 5693 5698 5707 5717 5723 5729 5738 5746 5754 5762 5768
5683 5676 5672 5668 5663 5656 5649 5642 5635 5629 5619 5613 5603 5596 5589 5584 5582 5584 5585 5587 5590 5590 5593 5603 5610 5619 5628 5634 5639 5653 5659 5662 5674 5679 5678 5688 5698 5704 5714 5723 5726 5735 5746 5755 5760
5675 5668 5664 5659 5655 5648 5641 5635 5629 5621 5613 5607 5598 5591 5583 5581 5580 5581 5584 5586 5587 5587 5591 5599 5605 5615 5619 5624 5634 5641 5654 5664 5666 5665 5668 5683 5690 5697 5710 5717 5723 5732 5739 5747 5753
5667 5661 5656 5653 5647 5641 5635 5629 5622 5616 5609 5602 5595 5587 5582 5580 5578 5580 5583 5584 5586 5586 5588 5595 5602 5609 5614 5617 5631 5639 5651 5654 5652 5658 5666 5675 5677 5688 5700 5710 5717 5724 5730 5735 5742
5660 5654 5650 5646 5641 5635 5630 5624 5617 5612 5607 5600 5593 5587 5582 5579 5578 5580 5582 5584 5585 5587 5589 5594 5601 5608 5614 5619 5625 5634 5647 5648 5648 5652 5661 5666 5673 5684 5694 5702 5707 5714 5720 5726 5734
5656 5649 5645 5640 5635 5629 5625 5619 5614 5609 5604 5599 5593 5587 5582 5579 5579 5579 5581 5583 5585 5586 5587 5592 5600 5605 5610 5615 5622 5635 5642 5643 5645 5651 5653 5660 5669 5677 5685 5693 5701 5707 5712 5717 5722
5650 5644 5639 5635 5629 5625 5620 5615 5610 5607 5603 5599 5592 5587 5582 5581 5579 5578 5580 5582 5583 5585 5587 5591 5598 5603 5608 5614 5624 5632 5634 5635 5641 5647 5648 5655 5664 5672 5679 5687 5693 5700 5705 5710 5716
5644 5640 5635 5630 5627 5620 5617 5612 5608 5605 5602 5597 5592 5587 5583 5581 5579 5577 5578 5579 5582 5584 5589 5591 5595 5600 5605 5608 5614 5620 5628 5634 5641 5645 5645 5653 5663 5668 5675 5681 5686 5692 5698 5704 5710
5640 5635 5630 5625 5622 5617 5613 5609 5606 5604 5601 5596 5590 5586 5583 5580 5578 5576 5577 5579 5580 5582 5588 5590 5595 5598 5601 5606 5612 5619 5625 5628 5639 5642 5646 5654 5660 5663 5670 5676 5681 5687 5692 5698 5704
5635 5631 5626 5621 5618 5614 5611 5608 5605 5603 5600 5595 5590 5586 5582 5578 5576 5576 5576 5578 5579 5580 5585 5590 5595 5598 5601 5603 5612 5617 5622 5628 5633 5642 5647 5652 5656 5660 5666 5672 5677 5683 5688 5694 5700
5630 5626 5623 5619 5615 5612 5609 5607 5605 5603 5599 5594 5590 5586 5582 5578 5575 5574 5575 5577 5578 5580 5584 5589 5595 5598 5603 5606 5610 5614 5619 5626 5633 5639 5646 5651 5655 5657 5663 5669 5675 5681 5686 5691 5696
5627 5623 5619 5615 5612 5610 5608 5606 5604 5602 5599 5594 5590 5586 5581 5578 5575 5573 5573 5576 5579 5582 5583 5587 5591 5594 5596 5601 5606 5610 5617 5624 5631 5637 5643 5648 5653 5656 5662 5667 5671 5677 5682 5687 5692
5621 5618 5615 5613 5609 5609 5607 5605 5604 5601 5598 5594 5590 5585 5581 5578 5576 5573 5572 5574 5577 5581 5584 5588 5592 5594 5597 5599 5603 5611 5617 5623 5630 5637 5643 5647 5651 5655 5660 5664 5668 5674 5679 5684 5688